,,PA_Meas_PMT16A,,PR_Meas_QMR101_102,,RH_Meas_QMH101,,SR_Meas_QMS101,,TA_Meas_QMH101,,GenWind,,GenWind,
time,status,PA,status,PR,status,RH,status,SR,status,TA,status,DirAvg,status,SpdAvg,
2013-06-14, 00:00:05,VALID,915.437,VALID,0,VALID,87.5168,VALID,0.107441,VALID,20.9885,VALID,202,VALID,0,
2013-06-14, 00:01:05,VALID,915.416,VALID,0,VALID,87.6083,VALID,0,VALID,20.969,VALID,202,VALID,0,
2013-06-14, 00:02:05,VALID,915.427,VALID,0,VALID,87.9437,VALID,0.107441,VALID,20.93,VALID,202,VALID,0,
2013-06-14, 00:03:05,VALID,915.465,VALID,0,VALID,87.5549,VALID,0.107441,VALID,20.9105,VALID,202,VALID,0,
2013-06-14, 00:04:05,VALID,915.486,VALID,0,VALID,88.0047,VALID,0.107441,VALID,20.8519,VALID,202,VALID,0,
2013-06-14, 00:05:05,VALID,915.477,VALID,0,VALID,88.4164,VALID,0.107441,VALID,20.8129,VALID,202,VALID,0,
2013-06-14, 00:06:05,VALID,915.461,VALID,0,VALID,88.7289,VALID,0.107441,VALID,20.7739,VALID,202,VALID,0,
2013-06-14, 00:07:05,VALID,915.445,VALID,0,VALID,88.8738,VALID,0,VALID,20.7544,VALID,202,VALID,0,
2013-06-14, 00:08:05,VALID,915.443,VALID,0,VALID,88.4926,VALID,0,VALID,20.6764,VALID,202,VALID,0,
2013-06-14, 00:09:05,VALID,915.424,VALID,0,VALID,89.1559,VALID,0.107441,VALID,20.6374,VALID,202,VALID,0,
2013-06-14, 00:10:05,VALID,915.454,VALID,0,VALID,89.4913,VALID,0.107441,VALID,20.678,VALID,202,VALID,0,
2013-06-14, 00:11:05,VALID,915.431,VALID,0,VALID,89.2321,VALID,0.107441,VALID,20.6764,VALID,202,VALID,0,
2013-06-14, 00:12:05,VALID,915.467,VALID,0,VALID,89.1559,VALID,0.107441,VALID,20.6959,VALID,204,VALID,0,
2013-06-14, 00:13:05,VALID,915.464,VALID,0,VALID,89.1101,VALID,0.107441,VALID,20.7349,VALID,204,VALID,0,
2013-06-14, 00:14:05,VALID,915.484,VALID,0,VALID,88.8814,VALID,0,VALID,20.7934,VALID,204,VALID,0,
2013-06-14, 00:15:05,VALID,915.432,VALID,0,VALID,88.4926,VALID,0,VALID,20.834,VALID,204,VALID,0,
2013-06-14, 00:16:05,VALID,915.415,VALID,0,VALID,88.4011,VALID,0,VALID,20.8551,VALID,204,VALID,0,
2013-06-14, 00:17:05,VALID,915.351,VALID,0,VALID,88.1648,VALID,0,VALID,20.873,VALID,204,VALID,0,
2013-06-14, 00:18:05,VALID,915.326,VALID,0,VALID,88.0047,VALID,0,VALID,20.912,VALID,204,VALID,0,
2013-06-14, 00:19:05,VALID,915.344,VALID,0,VALID,87.7684,VALID,0,VALID,20.8925,VALID,204,VALID,0,
2013-06-14, 00:20:05,VALID,915.366,VALID,0,VALID,87.6235,VALID,0,VALID,20.8925,VALID,226,VALID,0,
2013-06-14, 00:21:05,VALID,915.347,VALID,0,VALID,87.1966,VALID,0,VALID,20.9511,VALID,258,VALID,0,
2013-06-14, 00:22:05,VALID,915.355,VALID,0,VALID,86.8841,VALID,0,VALID,21.0291,VALID,250,VALID,0,
2013-06-14, 00:23:05,VALID,915.359,VALID,0,VALID,86.5944,VALID,0,VALID,21.0697,VALID,250,VALID,0,
2013-06-14, 00:24:05,VALID,915.36,VALID,0,VALID,86.4114,VALID,0,VALID,21.0486,VALID,250,VALID,0,
2013-06-14, 00:25:05,VALID,915.372,VALID,0,VALID,86.5944,VALID,0,VALID,21.0096,VALID,236,VALID,0,
2013-06-14, 00:26:05,VALID,915.352,VALID,0,VALID,86.4495,VALID,0,VALID,21.0876,VALID,261,VALID,0,
2013-06-14, 00:27:05,VALID,915.32,VALID,0,VALID,86.1217,VALID,0,VALID,21.1461,VALID,258,VALID,0,
2013-06-14, 00:28:05,VALID,915.303,VALID,0,VALID,86.0684,VALID,0,VALID,21.1266,VALID,263,VALID,0,
2013-06-14, 00:29:05,VALID,915.297,VALID,0,VALID,86.2208,VALID,0,VALID,21.1266,VALID,263,VALID,0,
2013-06-14, 00:30:05,VALID,915.284,VALID,0,VALID,86.3657,VALID,0,VALID,21.1071,VALID,263,VALID,0,
2013-06-14, 00:31:05,VALID,915.276,VALID,0,VALID,86.5105,VALID,0,VALID,21.1266,VALID,263,VALID,0,
2013-06-14, 00:32:05,VALID,915.242,VALID,0,VALID,86.6401,VALID,0,VALID,21.1071,VALID,226,VALID,0,
2013-06-14, 00:33:05,VALID,915.231,VALID,0,VALID,86.8383,VALID,0,VALID,21.0665,VALID,239,VALID,0,
2013-06-14, 00:34:05,VALID,915.176,VALID,0,VALID,86.9298,VALID,0,VALID,21.0486,VALID,239,VALID,0,
2013-06-14, 00:35:05,VALID,915.163,VALID,0,VALID,87.0747,VALID,0,VALID,21.0096,VALID,239,VALID,0,
2013-06-14, 00:36:05,VALID,915.205,VALID,0,VALID,87.2424,VALID,0,VALID,20.9706,VALID,239,VALID,0,
2013-06-14, 00:37:05,VALID,915.188,VALID,0,VALID,87.4482,VALID,0,VALID,20.9316,VALID,239,VALID,0,
2013-06-14, 00:38:05,VALID,915.176,VALID,0,VALID,87.7074,VALID,0,VALID,20.8535,VALID,239,VALID,0,
2013-06-14, 00:39:05,VALID,915.195,VALID,0,VALID,87.8599,VALID,0,VALID,20.8145,VALID,238,VALID,0,
2013-06-14, 00:40:05,VALID,915.171,VALID,0,VALID,87.8599,VALID,0,VALID,20.7755,VALID,238,VALID,0,
2013-06-14, 00:41:05,VALID,915.147,VALID,0,VALID,88.0505,VALID,0,VALID,20.6975,VALID,238,VALID,0,
2013-06-14, 00:42:05,VALID,915.178,VALID,0,VALID,88.2715,VALID,0,VALID,20.639,VALID,238,VALID,0,
2013-06-14, 00:43:05,VALID,915.184,VALID,0,VALID,88.3249,VALID,0,VALID,20.5414,VALID,238,VALID,0,
2013-06-14, 00:44:05,VALID,915.156,VALID,0,VALID,88.9653,VALID,0,VALID,20.4439,VALID,238,VALID,0,
2013-06-14, 00:45:05,VALID,915.182,VALID,0,VALID,89.3388,VALID,0,VALID,20.3659,VALID,238,VALID,0,
2013-06-14, 00:46:05,VALID,915.166,VALID,0,VALID,89.842,VALID,0,VALID,20.3058,VALID,238,VALID,0,
2013-06-14, 00:47:05,VALID,915.167,VALID,0,VALID,90.0021,VALID,0,VALID,20.3269,VALID,238,VALID,0,
2013-06-14, 00:48:05,VALID,915.156,VALID,0,VALID,89.9182,VALID,0,VALID,20.3659,VALID,238,VALID,0,
2013-06-14, 00:49:05,VALID,915.186,VALID,0,VALID,89.8267,VALID,0,VALID,20.3659,VALID,238,VALID,0,
2013-06-14, 00:50:05,VALID,915.216,VALID,0,VALID,89.781,VALID,0,VALID,20.3464,VALID,238,VALID,0,
2013-06-14, 00:51:05,VALID,915.22,VALID,0,VALID,89.7886,VALID,0,VALID,20.3869,VALID,238,VALID,0,
2013-06-14, 00:52:05,VALID,915.214,VALID,0,VALID,89.8801,VALID,0,VALID,20.3659,VALID,238,VALID,0,
2013-06-14, 00:53:05,VALID,915.234,VALID,0,VALID,89.72,VALID,0,VALID,20.4454,VALID,238,VALID,0,
2013-06-14, 00:54:05,VALID,915.212,VALID,0,VALID,88.9043,VALID,0,VALID,20.4439,VALID,238,VALID,0,
2013-06-14, 00:55:05,VALID,915.219,VALID,0,VALID,88.9119,VALID,0,VALID,20.3854,VALID,238,VALID,0,
2013-06-14, 00:56:05,VALID,915.234,VALID,0,VALID,89.1482,VALID,0,VALID,20.3659,VALID,238,VALID,0,
2013-06-14, 00:57:05,VALID,915.232,VALID,0,VALID,89.5675,VALID,0,VALID,20.3269,VALID,238,VALID,0,
2013-06-14, 00:58:05,VALID,915.21,VALID,0,VALID,89.8877,VALID,0,VALID,20.2879,VALID,238,VALID,0,
2013-06-14, 00:59:04,VALID,915.187,VALID,0,VALID,90.2231,VALID,0,VALID,20.3089,VALID,238,VALID,0,
2013-06-14, 01:00:04,VALID,915.156,VALID,0,VALID,90.246,VALID,0,VALID,20.3074,VALID,238,VALID,0,
2013-06-14, 01:01:04,VALID,915.168,VALID,0,VALID,90.0402,VALID,0,VALID,20.3074,VALID,238,VALID,0,
2013-06-14, 01:02:04,VALID,915.154,VALID,0,VALID,90.0097,VALID,0,VALID,20.3674,VALID,238,VALID,0,
2013-06-14, 01:03:04,VALID,915.168,VALID,0,VALID,90.0021,VALID,0,VALID,20.4064,VALID,238,VALID,0,
2013-06-14, 01:04:04,VALID,915.152,VALID,0,VALID,89.8877,VALID,0,VALID,20.4049,VALID,238,VALID,0,
2013-06-14, 01:05:04,VALID,915.108,VALID,0,VALID,89.7962,VALID,0,VALID,20.4259,VALID,238,VALID,0,
2013-06-14, 01:06:04,VALID,915.122,VALID,0,VALID,89.7657,VALID,0,VALID,20.4439,VALID,290,VALID,0,
2013-06-14, 01:07:04,VALID,915.09,VALID,0,VALID,89.2626,VALID,0,VALID,20.5219,VALID,278,VALID,0,
2013-06-14, 01:08:04,VALID,915.121,VALID,0,VALID,88.7442,VALID,0,VALID,20.6194,VALID,264,VALID,0,
2013-06-14, 01:09:04,VALID,915.101,VALID,0,VALID,88.4545,VALID,0,VALID,20.678,VALID,261,VALID,0,
2013-06-14, 01:10:04,VALID,915.09,VALID,0,VALID,88.3173,VALID,0,VALID,20.7381,VALID,260,VALID,0,
2013-06-14, 01:11:04,VALID,915.055,VALID,0,VALID,88.0809,VALID,0,VALID,20.7966,VALID,259,VALID,0,
2013-06-14, 01:12:04,VALID,915.032,VALID,0,VALID,87.898,VALID,0,VALID,20.795,VALID,259,VALID,0,
2013-06-14, 01:13:04,VALID,915.015,VALID,0,VALID,87.7531,VALID,0,VALID,20.834,VALID,259,VALID,0,
2013-06-14, 01:14:04,VALID,914.976,VALID,0,VALID,87.7303,VALID,0,VALID,20.8145,VALID,259,VALID,0,
2013-06-14, 01:15:04,VALID,914.997,VALID,0,VALID,87.837,VALID,0,VALID,20.795,VALID,259,VALID,0,
2013-06-14, 01:16:04,VALID,914.953,VALID,0,VALID,87.8599,VALID,0,VALID,20.756,VALID,259,VALID,0,
2013-06-14, 01:17:04,VALID,914.948,VALID,0,VALID,88.1419,VALID,0,VALID,20.7381,VALID,259,VALID,0,
2013-06-14, 01:18:04,VALID,914.936,VALID,0,VALID,88.2105,VALID,0,VALID,20.717,VALID,259,VALID,0,
2013-06-14, 01:19:04,VALID,914.929,VALID,0,VALID,88.2868,VALID,0,VALID,20.717,VALID,259,VALID,0,
2013-06-14, 01:20:04,VALID,914.938,VALID,0,VALID,88.2334,VALID,0,VALID,20.6975,VALID,259,VALID,0,
2013-06-14, 01:21:04,VALID,914.945,VALID,0,VALID,88.2182,VALID,0,VALID,20.678,VALID,259,VALID,0,
2013-06-14, 01:22:04,VALID,914.933,VALID,0,VALID,88.2868,VALID,0,VALID,20.6585,VALID,259,VALID,0,
2013-06-14, 01:23:04,VALID,914.92,VALID,0,VALID,88.3935,VALID,0,VALID,20.6585,VALID,259,VALID,0,
2013-06-14, 01:24:04,VALID,914.948,VALID,0,VALID,88.4011,VALID,0,VALID,20.66,VALID,259,VALID,0,
2013-06-14, 01:25:04,VALID,914.95,VALID,0,VALID,88.2258,VALID,0,VALID,20.639,VALID,259,VALID,0,
2013-06-14, 01:26:04,VALID,914.911,VALID,0,VALID,87.8141,VALID,0,VALID,20.717,VALID,237,VALID,0,
2013-06-14, 01:27:04,VALID,914.928,VALID,0,VALID,87.0899,VALID,0,VALID,20.795,VALID,260,VALID,0,
2013-06-14, 01:28:04,VALID,914.905,VALID,0,VALID,86.3276,VALID,0,VALID,20.9316,VALID,243,VALID,0,
2013-06-14, 01:29:04,VALID,914.861,VALID,0,VALID,85.9693,VALID,0,VALID,21.0096,VALID,231,VALID,0,
2013-06-14, 01:30:04,VALID,914.812,VALID,0,VALID,86.0226,VALID,0,VALID,21.0502,VALID,232,VALID,0,
2013-06-14, 01:31:04,VALID,914.823,VALID,0,VALID,85.9235,VALID,0,VALID,21.0096,VALID,233,VALID,0,
2013-06-14, 01:32:04,VALID,914.8,VALID,0,VALID,85.9007,VALID,0,VALID,21.0291,VALID,233,VALID,0,
2013-06-14, 01:33:04,VALID,914.804,VALID,0,VALID,86.0684,VALID,0,VALID,20.9901,VALID,233,VALID,0,
2013-06-14, 01:34:04,VALID,914.807,VALID,0,VALID,86.419,VALID,0,VALID,20.873,VALID,227,VALID,0,
2013-06-14, 01:35:04,VALID,914.785,VALID,0,VALID,86.8841,VALID,0,VALID,20.834,VALID,227,VALID,0,
2013-06-14, 01:36:04,VALID,914.781,VALID,0,VALID,87.1128,VALID,0,VALID,20.795,VALID,227,VALID,0,
2013-06-14, 01:37:04,VALID,914.739,VALID,0,VALID,87.2195,VALID,0,VALID,20.8161,VALID,224,VALID,0,
2013-06-14, 01:38:04,VALID,914.691,VALID,0,VALID,87.433,VALID,0,VALID,20.7966,VALID,224,VALID,0,
2013-06-14, 01:39:04,VALID,914.686,VALID,0,VALID,87.5702,VALID,0,VALID,20.7771,VALID,224,VALID,0,
2013-06-14, 01:40:04,VALID,914.719,VALID,0,VALID,87.4787,VALID,0,VALID,20.7771,VALID,224,VALID,0,
2013-06-14, 01:41:04,VALID,914.698,VALID,0,VALID,87.311,VALID,0,VALID,20.7771,VALID,241,VALID,0,
2013-06-14, 01:42:04,VALID,914.686,VALID,0,VALID,87.2424,VALID,0,VALID,20.8161,VALID,254,VALID,0,
2013-06-14, 01:43:04,VALID,914.674,VALID,0,VALID,87.1204,VALID,0,VALID,20.8145,VALID,243,VALID,0,
2013-06-14, 01:44:04,VALID,914.687,VALID,0,VALID,87.0975,VALID,0,VALID,20.8145,VALID,243,VALID,0,
2013-06-14, 01:45:04,VALID,914.63,VALID,0,VALID,86.8383,VALID,0,VALID,20.834,VALID,247,VALID,0,
2013-06-14, 01:46:04,VALID,914.609,VALID,0,VALID,86.4953,VALID,0,VALID,20.8145,VALID,247,VALID,0,
2013-06-14, 01:47:04,VALID,914.577,VALID,0,VALID,87.128,VALID,0,VALID,20.717,VALID,247,VALID,0,
2013-06-14, 01:48:04,VALID,914.568,VALID,0,VALID,87.6007,VALID,0,VALID,20.699,VALID,197,VALID,0,
2013-06-14, 01:49:04,VALID,914.575,VALID,0,VALID,87.7226,VALID,0,VALID,20.6795,VALID,197,VALID,0,
2013-06-14, 01:50:04,VALID,914.609,VALID,0,VALID,87.8218,VALID,0,VALID,20.6585,VALID,199,VALID,0,
2013-06-14, 01:51:04,VALID,914.566,VALID,0,VALID,87.7074,VALID,0,VALID,20.699,VALID,257,VALID,0,
2013-06-14, 01:52:04,VALID,914.548,VALID,0,VALID,87.5244,VALID,0,VALID,20.7365,VALID,249,VALID,0,
2013-06-14, 01:53:04,VALID,914.49,VALID,0,VALID,87.4406,VALID,0,VALID,20.7771,VALID,249,VALID,0,
2013-06-14, 01:54:04,VALID,914.45,VALID,0,VALID,87.4482,VALID,0,VALID,20.7576,VALID,249,VALID,0,
2013-06-14, 01:55:04,VALID,914.48,VALID,0,VALID,87.5473,VALID,0,VALID,20.7365,VALID,249,VALID,0,
2013-06-14, 01:56:04,VALID,914.482,VALID,0,VALID,87.6388,VALID,0,VALID,20.717,VALID,273,VALID,0,
2013-06-14, 01:57:04,VALID,914.477,VALID,0,VALID,87.6998,VALID,0,VALID,20.6975,VALID,264,VALID,0,
2013-06-14, 01:58:04,VALID,914.424,VALID,0,VALID,87.5854,VALID,0,VALID,20.7381,VALID,282,VALID,0,
2013-06-14, 01:59:04,VALID,914.407,VALID,0,VALID,87.6083,VALID,0,VALID,20.7576,VALID,254,VALID,0,
2013-06-14, 02:00:04,VALID,914.416,VALID,0,VALID,87.6083,VALID,0,VALID,20.7771,VALID,254,VALID,0,
2013-06-14, 02:01:04,VALID,914.424,VALID,0,VALID,87.5244,VALID,0,VALID,20.7365,VALID,254,VALID,0,
2013-06-14, 02:02:04,VALID,914.403,VALID,0,VALID,87.5397,VALID,0,VALID,20.7381,VALID,257,VALID,0,
2013-06-14, 02:03:04,VALID,914.437,VALID,0,VALID,87.311,VALID,0,VALID,20.699,VALID,257,VALID,0,
2013-06-14, 02:04:04,VALID,914.437,VALID,0,VALID,87.7531,VALID,0,VALID,20.6585,VALID,257,VALID,0,
2013-06-14, 02:05:04,VALID,914.468,VALID,0,VALID,87.9895,VALID,0,VALID,20.639,VALID,257,VALID,0,
2013-06-14, 02:06:04,VALID,914.465,VALID,0,VALID,88.1572,VALID,0,VALID,20.6405,VALID,257,VALID,0,
2013-06-14, 02:07:04,VALID,914.457,VALID,0,VALID,88.302,VALID,0,VALID,20.6405,VALID,257,VALID,0,
2013-06-14, 02:08:04,VALID,914.479,VALID,0,VALID,88.2715,VALID,0,VALID,20.639,VALID,257,VALID,0,
2013-06-14, 02:09:04,VALID,914.464,VALID,0,VALID,88.1038,VALID,0,VALID,20.639,VALID,257,VALID,0,
2013-06-14, 02:10:04,VALID,914.474,VALID,0,VALID,88.1496,VALID,0,VALID,20.639,VALID,257,VALID,0,
2013-06-14, 02:11:04,VALID,914.498,VALID,0,VALID,88.2105,VALID,0,VALID,20.6194,VALID,257,VALID,0,
2013-06-14, 02:12:04,VALID,914.48,VALID,0,VALID,88.02,VALID,0,VALID,20.6194,VALID,257,VALID,0,
2013-06-14, 02:13:04,VALID,914.484,VALID,0,VALID,87.9666,VALID,0,VALID,20.621,VALID,257,VALID,0,
2013-06-14, 02:14:04,VALID,914.502,VALID,0,VALID,88.2715,VALID,0,VALID,20.5609,VALID,257,VALID,0,
2013-06-14, 02:15:04,VALID,914.469,VALID,0,VALID,88.5002,VALID,0,VALID,20.5024,VALID,257,VALID,0,
2013-06-14, 02:16:04,VALID,914.47,VALID,0,VALID,88.7747,VALID,0,VALID,20.4439,VALID,257,VALID,0,
2013-06-14, 02:17:04,VALID,914.479,VALID,0,VALID,89.0872,VALID,0,VALID,20.465,VALID,257,VALID,0,
2013-06-14, 02:18:04,VALID,914.503,VALID,0,VALID,88.9348,VALID,0,VALID,20.4454,VALID,257,VALID,0,
2013-06-14, 02:19:04,VALID,914.529,VALID,0,VALID,89.011,VALID,0,VALID,20.4244,VALID,257,VALID,0,
2013-06-14, 02:20:04,VALID,914.502,VALID,0,VALID,89.1025,VALID,0,VALID,20.4049,VALID,257,VALID,0,
2013-06-14, 02:21:04,VALID,914.507,VALID,0,VALID,89.2016,VALID,0,VALID,20.4049,VALID,257,VALID,0,
2013-06-14, 02:22:04,VALID,914.482,VALID,0,VALID,89.2854,VALID,0,VALID,20.4049,VALID,257,VALID,0,
2013-06-14, 02:23:04,VALID,914.516,VALID,0,VALID,89.1101,VALID,0,VALID,20.4634,VALID,251,VALID,0,
2013-06-14, 02:24:04,VALID,914.49,VALID,0,VALID,89.0415,VALID,0,VALID,20.4829,VALID,252,VALID,0,
2013-06-14, 02:25:04,VALID,914.521,VALID,0,VALID,88.5079,VALID,0,VALID,20.4813,VALID,252,VALID,0,
2013-06-14, 02:26:04,VALID,914.532,VALID,0,VALID,88.8357,VALID,0,VALID,20.4634,VALID,249,VALID,0,
2013-06-14, 02:27:04,VALID,914.543,VALID,0,VALID,88.9958,VALID,0,VALID,20.5024,VALID,262,VALID,0,
2013-06-14, 02:28:04,VALID,914.555,VALID,0,VALID,88.6375,VALID,0.107441,VALID,20.5804,VALID,252,VALID,0,
2013-06-14, 02:29:04,VALID,914.557,VALID,0,VALID,88.1496,VALID,0,VALID,20.6585,VALID,262,VALID,0,
2013-06-14, 02:30:04,VALID,914.55,VALID,0,VALID,87.6998,VALID,0,VALID,20.6975,VALID,262,VALID,0,
2013-06-14, 02:31:04,VALID,914.541,VALID,0,VALID,87.6922,VALID,0,VALID,20.699,VALID,262,VALID,0,
2013-06-14, 02:32:04,VALID,914.556,VALID,0,VALID,87.7074,VALID,0,VALID,20.678,VALID,262,VALID,0,
2013-06-14, 02:33:04,VALID,914.518,VALID,0,VALID,87.8675,VALID,0,VALID,20.6585,VALID,262,VALID,0,
2013-06-14, 02:34:04,VALID,914.495,VALID,0,VALID,87.837,VALID,0,VALID,20.639,VALID,262,VALID,0,
2013-06-14, 02:35:04,VALID,914.436,VALID,0,VALID,88.0352,VALID,0.107441,VALID,20.6194,VALID,262,VALID,0,
2013-06-14, 02:36:04,VALID,914.443,VALID,0,VALID,88.1038,VALID,0,VALID,20.639,VALID,262,VALID,0,
2013-06-14, 02:37:04,VALID,914.434,VALID,0,VALID,87.9818,VALID,0,VALID,20.6194,VALID,263,VALID,0,
2013-06-14, 02:38:04,VALID,914.498,VALID,0,VALID,88.1953,VALID,0,VALID,20.5999,VALID,263,VALID,0,
2013-06-14, 02:39:04,VALID,914.485,VALID,0,VALID,88.0581,VALID,0.107441,VALID,20.639,VALID,247,VALID,0,
2013-06-14, 02:40:04,VALID,914.464,VALID,0,VALID,87.8218,VALID,0,VALID,20.6975,VALID,247,VALID,0,
2013-06-14, 02:41:04,VALID,914.457,VALID,0,VALID,87.5473,VALID,0,VALID,20.717,VALID,247,VALID,0,
2013-06-14, 02:42:04,VALID,914.47,VALID,0,VALID,87.4101,VALID,0,VALID,20.717,VALID,247,VALID,0,
2013-06-14, 02:43:04,VALID,914.468,VALID,0,VALID,87.5854,VALID,0,VALID,20.6975,VALID,292,VALID,0,
2013-06-14, 02:44:04,VALID,914.462,VALID,0,VALID,87.5397,VALID,0,VALID,20.717,VALID,263,VALID,0,
2013-06-14, 02:45:04,VALID,914.405,VALID,0,VALID,87.3491,VALID,0,VALID,20.7365,VALID,263,VALID,0,
2013-06-14, 02:46:04,VALID,914.398,VALID,0,VALID,87.3034,VALID,0,VALID,20.717,VALID,263,VALID,0,
2013-06-14, 02:47:04,VALID,914.415,VALID,0,VALID,86.9374,VALID,0,VALID,20.6585,VALID,263,VALID,0,
2013-06-14, 02:48:04,VALID,914.396,VALID,0,VALID,87.2424,VALID,0,VALID,20.5414,VALID,263,VALID,0,
2013-06-14, 02:49:04,VALID,914.399,VALID,0,VALID,87.9513,VALID,0.107441,VALID,20.4634,VALID,263,VALID,0,
2013-06-14, 02:50:04,VALID,914.375,VALID,0,VALID,88.5917,VALID,0,VALID,20.3854,VALID,263,VALID,0,
2013-06-14, 02:51:04,VALID,914.346,VALID,0,VALID,88.8128,VALID,0,VALID,20.3464,VALID,263,VALID,0,
2013-06-14, 02:52:04,VALID,914.304,VALID,0,VALID,89.0186,VALID,0,VALID,20.2684,VALID,263,VALID,0,
2013-06-14, 02:53:04,VALID,914.296,VALID,0,VALID,89.3998,VALID,0,VALID,20.2098,VALID,263,VALID,0,
2013-06-14, 02:54:04,VALID,914.327,VALID,0,VALID,89.5523,VALID,0,VALID,20.1903,VALID,263,VALID,0,
2013-06-14, 02:55:04,VALID,914.369,VALID,0,VALID,89.7581,VALID,0,VALID,20.1919,VALID,263,VALID,0,
2013-06-14, 02:56:04,VALID,914.379,VALID,0,VALID,89.5751,VALID,0,VALID,20.1708,VALID,263,VALID,0,
2013-06-14, 02:57:04,VALID,914.367,VALID,0,VALID,89.7886,VALID,0,VALID,20.1903,VALID,261,VALID,0,
2013-06-14, 02:58:04,VALID,914.312,VALID,0,VALID,89.7352,VALID,0,VALID,20.2489,VALID,236,VALID,0,
2013-06-14, 02:59:04,VALID,914.321,VALID,0,VALID,89.2702,VALID,0,VALID,20.3269,VALID,235,VALID,0,
2013-06-14, 03:00:04,VALID,914.352,VALID,0,VALID,88.9348,VALID,0,VALID,20.3269,VALID,235,VALID,0,
2013-06-14, 03:01:04,VALID,914.354,VALID,0,VALID,88.5002,VALID,0.107441,VALID,20.3269,VALID,235,VALID,0,
2013-06-14, 03:02:04,VALID,914.319,VALID,0,VALID,88.7137,VALID,0,VALID,20.3253,VALID,257,VALID,0,
2013-06-14, 03:03:04,VALID,914.325,VALID,0,VALID,88.1419,VALID,0.107441,VALID,20.3659,VALID,257,VALID,0,
2013-06-14, 03:04:04,VALID,914.284,VALID,0,VALID,88.5002,VALID,0,VALID,20.3659,VALID,257,VALID,0,
2013-06-14, 03:05:04,VALID,914.316,VALID,0,VALID,88.4316,VALID,0,VALID,20.3854,VALID,257,VALID,0,
2013-06-14, 03:06:04,VALID,914.31,VALID,0,VALID,88.2105,VALID,0,VALID,20.3659,VALID,254,VALID,0,
2013-06-14, 03:07:04,VALID,914.323,VALID,0,VALID,87.8675,VALID,0,VALID,20.3854,VALID,242,VALID,0,
2013-06-14, 03:08:04,VALID,914.307,VALID,0,VALID,88.2105,VALID,0,VALID,20.4634,VALID,233,VALID,0,
2013-06-14, 03:09:04,VALID,914.258,VALID,0,VALID,87.8294,VALID,0,VALID,20.5235,VALID,225,VALID,0,
2013-06-14, 03:10:04,VALID,914.247,VALID,0,VALID,87.8522,VALID,0,VALID,20.5219,VALID,225,VALID,0,
2013-06-14, 03:11:04,VALID,914.282,VALID,0,VALID,87.837,VALID,0,VALID,20.5609,VALID,254,VALID,0,
2013-06-14, 03:12:04,VALID,914.315,VALID,0,VALID,87.776,VALID,0.107441,VALID,20.5804,VALID,256,VALID,0,
2013-06-14, 03:13:04,VALID,914.336,VALID,0,VALID,87.4634,VALID,0.107441,VALID,20.5804,VALID,256,VALID,0,
2013-06-14, 03:14:04,VALID,914.276,VALID,0,VALID,87.6769,VALID,0,VALID,20.5609,VALID,256,VALID,0,
2013-06-14, 03:15:04,VALID,914.265,VALID,0,VALID,87.5473,VALID,0,VALID,20.5625,VALID,256,VALID,0,
2013-06-14, 03:16:04,VALID,914.242,VALID,0,VALID,87.4711,VALID,0,VALID,20.5235,VALID,256,VALID,0,
2013-06-14, 03:17:04,VALID,914.225,VALID,0,VALID,87.4939,VALID,0,VALID,20.4634,VALID,256,VALID,0,
2013-06-14, 03:18:04,VALID,914.205,VALID,0,VALID,87.6769,VALID,0,VALID,20.4634,VALID,256,VALID,0,
2013-06-14, 03:19:04,VALID,914.191,VALID,0,VALID,87.8294,VALID,0,VALID,20.4244,VALID,250,VALID,0,
2013-06-14, 03:20:04,VALID,914.152,VALID,0,VALID,88.1267,VALID,0,VALID,20.3854,VALID,244,VALID,0,
2013-06-14, 03:21:04,VALID,914.135,VALID,0,VALID,88.3859,VALID,0,VALID,20.3464,VALID,244,VALID,0,
2013-06-14, 03:22:04,VALID,914.145,VALID,0,VALID,88.6298,VALID,0,VALID,20.3269,VALID,244,VALID,0,
2013-06-14, 03:23:04,VALID,914.132,VALID,0,VALID,88.6908,VALID,0,VALID,20.3074,VALID,244,VALID,0,
2013-06-14, 03:24:04,VALID,914.16,VALID,0,VALID,88.1724,VALID,0,VALID,20.2879,VALID,244,VALID,0,
2013-06-14, 03:25:04,VALID,914.128,VALID,0,VALID,88.3325,VALID,0,VALID,20.2489,VALID,244,VALID,0,
2013-06-14, 03:26:04,VALID,914.105,VALID,0,VALID,88.5155,VALID,0,VALID,20.1903,VALID,249,VALID,0,
2013-06-14, 03:27:04,VALID,914.088,VALID,0,VALID,88.9043,VALID,0,VALID,20.1123,VALID,249,VALID,0,
2013-06-14, 03:28:04,VALID,914.081,VALID,0,VALID,89.4227,VALID,0,VALID,20.0733,VALID,249,VALID,0,
2013-06-14, 03:29:04,VALID,914.055,VALID,0,VALID,89.6209,VALID,0,VALID,20.0749,VALID,249,VALID,0,
2013-06-14, 03:30:04,VALID,914.069,VALID,0,VALID,89.6285,VALID,0,VALID,19.9953,VALID,249,VALID,0,
2013-06-14, 03:31:04,VALID,914.057,VALID,0,VALID,89.7886,VALID,0,VALID,19.9758,VALID,249,VALID,0,
2013-06-14, 03:32:04,VALID,914.056,VALID,0,VALID,90.0935,VALID,0,VALID,19.9758,VALID,249,VALID,0,
2013-06-14, 03:33:04,VALID,914.051,VALID,0,VALID,90.0707,VALID,0,VALID,19.9758,VALID,249,VALID,0,
2013-06-14, 03:34:04,VALID,914,VALID,0,VALID,89.842,VALID,0,VALID,19.9563,VALID,249,VALID,0,
2013-06-14, 03:35:04,VALID,914.008,VALID,0,VALID,89.9716,VALID,0,VALID,19.9368,VALID,249,VALID,0,
2013-06-14, 03:36:04,VALID,913.973,VALID,0,VALID,90.2536,VALID,0,VALID,19.9188,VALID,198,VALID,0,
2013-06-14, 03:37:04,VALID,913.956,VALID,0,VALID,90.4671,VALID,0,VALID,19.8783,VALID,204,VALID,0,
2013-06-14, 03:38:04,VALID,913.935,VALID,0,VALID,90.5891,VALID,0,VALID,19.8588,VALID,204,VALID,0,
2013-06-14, 03:39:04,VALID,913.914,VALID,0,VALID,90.0249,VALID,0,VALID,19.8408,VALID,120,VALID,0,
2013-06-14, 03:40:04,VALID,913.916,VALID,0,VALID,90.0554,VALID,0,VALID,19.7823,VALID,120,VALID,0,
2013-06-14, 03:41:04,VALID,913.878,VALID,0,VALID,90.3756,VALID,0,VALID,19.7433,VALID,120,VALID,0,
2013-06-14, 03:42:04,VALID,913.881,VALID,0,VALID,90.7339,VALID,0,VALID,19.7418,VALID,121,VALID,0,
2013-06-14, 03:43:04,VALID,913.887,VALID,0,VALID,91.0465,VALID,0,VALID,19.7433,VALID,126,VALID,0,
2013-06-14, 03:44:04,VALID,913.882,VALID,0,VALID,91.2218,VALID,0,VALID,19.7433,VALID,148,VALID,0,
2013-06-14, 03:45:04,VALID,913.879,VALID,0,VALID,91.2142,VALID,0,VALID,19.7628,VALID,320,VALID,0,
2013-06-14, 03:46:04,VALID,913.874,VALID,0,VALID,90.5586,VALID,0,VALID,19.7823,VALID,283,VALID,0,
2013-06-14, 03:47:04,VALID,913.878,VALID,0,VALID,90.5509,VALID,0,VALID,19.8408,VALID,245,VALID,0,
2013-06-14, 03:48:04,VALID,913.828,VALID,0,VALID,90.2841,VALID,0,VALID,19.8783,VALID,252,VALID,0,
2013-06-14, 03:49:04,VALID,913.833,VALID,0,VALID,89.8496,VALID,0,VALID,19.8993,VALID,252,VALID,0,
2013-06-14, 03:50:04,VALID,913.81,VALID,0,VALID,89.476,VALID,0,VALID,19.8798,VALID,252,VALID,0,
2013-06-14, 03:51:04,VALID,913.787,VALID,0,VALID,89.7733,VALID,0,VALID,19.7808,VALID,252,VALID,0,
2013-06-14, 03:52:04,VALID,913.775,VALID,0,VALID,90.0707,VALID,0,VALID,19.7823,VALID,252,VALID,0,
2013-06-14, 03:53:04,VALID,913.753,VALID,0,VALID,90.2231,VALID,0,VALID,19.7418,VALID,252,VALID,0,
2013-06-14, 03:54:04,VALID,913.752,VALID,0,VALID,90.2994,VALID,0,VALID,19.6833,VALID,30,VALID,0,
2013-06-14, 03:55:04,VALID,913.805,VALID,0,VALID,90.5814,VALID,0,VALID,19.6848,VALID,30,VALID,0,
2013-06-14, 03:56:04,VALID,913.775,VALID,0,VALID,90.8787,VALID,0,VALID,19.6848,VALID,346,VALID,0,
2013-06-14, 03:57:04,VALID,913.809,VALID,0,VALID,90.8787,VALID,0,VALID,19.6638,VALID,346,VALID,0,
2013-06-14, 03:58:04,VALID,913.833,VALID,0,VALID,90.833,VALID,0,VALID,19.6833,VALID,346,VALID,0,
2013-06-14, 03:59:04,VALID,913.807,VALID,0,VALID,90.955,VALID,0,VALID,19.7028,VALID,346,VALID,0,